Terminal Aerodrome Forecast
Issued by NWS

Home | Current Version | Previous Version | Text Only | Print | Product List | Glossary On
Versions: 1 2 3 4 5 6 7 8 9 10 11 12 13 14 15 16 17 18 19 20 21 22 23 24 25 26 27 28 29 30 31 32 33 34 35 36 37 38 39 40 41 42 43 44 45 46 47
000
FTAK31 PAFA 302334
TAFAFA
TAF
PAFA 302334Z 3100/0106 25005KT P6SM VCSH BKN035 BKN050 BKN100
     FM310800 VRB03KT P6SM SCT035 BKN050 BKN100
     FM311200 VRB03KT 6SM BCFG FEW005 SCT035 BKN050=

USA.gov is the U.S. government's official web portal to all federal, state and local government web resources and services.